Content
SEND FEEDBACK

Daily
Averages
Monthly
Summary
Philippines

QUEZON CITY, PHILIPPINES


Home > Asia > Philippines
Elevation: 46 meters     Latitude: 14 39N     Longitude: 121 03E

WEATHER
 
SELECT A DAY
Number of Records: 172,358;   Date Range: 7/1/96 - 7/20/14
 
SHARE

PRINT THIS DATA

[ ← Previous Day ]
WEATHER ALMANAC - 9 APRIL, 2013
[ Next Day → ]
[ °F ]   °C
We're sorry. There is no daily almanac available for Quezon City, Philippines on 9 April, 2013.
WEATHER BY HOUR - 9 APRIL, 2013
[ °F ]   °C
Local TimeTemperatureDewpointHumidityBarometerVisibilityWind DirectionWind SpeedGust SpeedPrecipitationEventsConditions
1:00 AM29 °C24 °C74 %1010.2 hPa10 kmESE (120°)11.1 km/hPartly Cloudy
2:00 AM28.9 °C23.3 °C66 %1009.8 hPa9.7 kmESE (120°)10.8 km/hHaze
2:00 AM29 °C24 °C74 %1009.1 hPa10 kmESE (120°)9.3 km/hPartly Cloudy
3:00 AM29 °C24 °C74 %1009.1 hPa10 kmEast (100°)7.4 km/hPartly Cloudy
4:00 AM27 °C24 °C84 %1009.1 hPa10 kmEast (80°)5.6 km/hPartly Cloudy
5:00 AM28.3 °C23.3 °C69 %1009.5 hPa9.7 kmEast (100°)7.2 km/hHaze
5:00 AM28 °C24 °C79 %1009.1 hPa10 kmESE (108°)5.6 km/hScattered Clouds
6:00 AM28 °C23 °C74 %1010.2 hPa9 kmVariable3.7 km/hPartly Cloudy
7:00 AM29 °C23 °C70 %1010.2 hPa10 kmNorth (360°)11.1 km/hPartly Cloudy
8:00 AM30.6 °C23.3 °C57 %1011.5 hPa9.7 kmSSE (160°)3.5 km/hHaze
8:00 AM31 °C23 °C62 %1011.2 hPa10 kmVariable3.7 km/hScattered Clouds
9:00 AM31 °C23 °C62 %1011.2 hPa10 kmVariable9.3 km/hMostly Cloudy
10:00 AM32 °C24 °C62 %1011.2 hPa10 kmVariable13 km/hMostly Cloudy
11:00 AM32.8 °C24.4 °C52 %1011.9 hPa9.7 kmESE (110°)10.8 km/hHaze
11:00 AM33 °C24 °C59 %1011.2 hPa10 kmESE (110°)13 km/hMostly Cloudy
12:00 PM33 °C24 °C59 %1010.2 hPa10 kmESE (110°)18.5 km/hMostly Cloudy
1:00 PM33 °C21 °C49 %1010.2 hPa10 kmESE (110°)20.4 km/hScattered Clouds
2:00 PM32.8 °C22.8 °C46 %1009.5 hPa9.7 kmESE (110°)18 km/hHaze
2:00 PM33 °C23 °C55 %1009.1 hPa10 kmESE (110°)18.5 km/hOvercast
3:00 PM32 °C23 °C59 %1008.1 hPa10 kmESE (110°)22.2 km/hMostly Cloudy
4:00 PM33 °C22 °C52 %1008.1 hPa10 kmEast (100°)18.5 km/hScattered Clouds
5:00 PM32.8 °C21.7 °C42 %1008.8 hPa9.7 kmESE (120°)14.3 km/hHaze
5:00 PM33 °C22 °C52 %1008.1 hPa10 kmESE (120°)16.7 km/hScattered Clouds
6:00 PM32 °C23 °C59 %1009.1 hPa10 kmESE (110°)14.8 km/hMostly Cloudy
7:00 PM31 °C22 °C58 %1010.2 hPa10 kmESE (120°)16.7 km/hMostly Cloudy
8:00 PM30 °C22.8 °C56 %1011.2 hPa9.7 kmSE (130°)14.3 km/hHaze
8:00 PM30 °C23 °C66 %1011.2 hPa10 kmSE (130°)14.8 km/hScattered Clouds
9:00 PM30 °C22 °C62 %1011.2 hPa10 kmESE (120°)13 km/hPartly Cloudy
10:00 PM29 °C22 °C66 %1012.2 hPa10 kmESE (120°)14.8 km/hPartly Cloudy
11:00 PM28.9 °C22.8 °C63 %1012.9 hPa9.7 kmESE (120°)10.8 km/hHaze
11:00 PM29 °C23 °C70 %1012.2 hPa10 kmESE (120°)11.1 km/hPartly Cloudy
Hourly data recorded from RPLL, located 0 kilometers away from Quezon City, Philippines







STORIES FROM OUR PARTNERS